Regional Weather Roundup
Issued by NWS

Home | Current Version | Previous Version | Text Only | Print | Product List | Glossary Off
Versions: 1 2 3 4 5 6 7 8 9 10 11 12 13 14 15 16 17 18 19 20 21 22 23 24 25 26 27 28 29 30 31 32 33 34 35 36 37 38 39 40 41 42 43 44 45 46 47 48 49 50

000
ASUS43 KLMK 040410
RWRKY
KENTUCKY REGIONAL WEATHER ROUNDUP
NATIONAL WEATHER SERVICE LOUISVILLE KY
1200 AM EDT MON MAY 04 2015

NOTE "FAIR" INDICATES FEW OR NO CLOUDS BELOW 12,000 FEET
WITH NO SIGNIFICANT WEATHER AND/OR OBSTRUCTIONS TO VISIBILITY.

KYZ001>023-026-027-061>063-070>075-040500-
WESTERN AND SOUTH CENTRAL KENTUCKY

CITY           SKY/WX    TMP DP  RH WIND       PRES   REMARKS
PADUCAH        PTCLDY    67  48  50 S6        30.06R
HENDERSON      CLEAR     64  48  55 S7        30.06S
OWENSBORO      CLEAR     63  53  69 S5        30.08S
HOPKINSVILLE   CLEAR     65  50  58 SE3       30.10S
BOWLING GREEN  CLEAR     65  50  58 CALM      30.12S
GLASGOW        CLEAR     58  51  78 CALM      30.13S
$$

KYZ024-025-028>034-038-045-046-053-040500-
NORTH CENTRAL KENTUCKY

CITY           SKY/WX    TMP DP  RH WIND       PRES   REMARKS
LOUISVILLE/SDF PTCLDY    67  51  56 SE3       30.09S
LOUISVILLE/LOU CLEAR     65  51  60 CALM      30.10S
FORT KNOX      CLEAR     60  49  66 CALM      30.09S
$$

KYZ035>037-039>044-047>052-055>060-089>105-040500-
NORTHEAST KENTUCKY

CITY           SKY/WX    TMP DP  RH WIND       PRES   REMARKS
LEXINGTON      PTCLDY    60  49  66 S6        30.13S
COVINGTON      PTCLDY    62  46  55 S5        30.09F
FRANKFORT      PTCLDY    58  48  69 CALM      30.10F
$$

KYZ054-064>069-076>088-106>120-040500-
SOUTHEAST KENTUCKY

CITY           SKY/WX    TMP DP  RH WIND       PRES   REMARKS
JACKSON        PTCLDY    62  43  49 CALM      30.16R
LONDON         CLEAR     60  50  69 CALM      30.16R
SOMERSET       PTCLDY    57  48  72 CALM      30.16S
MIDDLESBORO    CLEAR     53  49  87 CALM      30.19R
MONTICELLO     CLEAR     55  51  86 CALM      30.18S
$$




USA.gov is the U.S. government's official web portal to all federal, state and local government web resources and services.